| time (UTC) | temp F | wind direction | speed knots | gust knots | rain 1hr in | rain 24hr in | rain mn in | humidity % | barometer mb |
| 20260506203526 | 56 | 287 | 0.9 | 2.6 | 0.00 | 0.01 | 0.01 | 92 | 1008.7 |
| 20260506203022 | 56 | 240 | 1.7 | 2.6 | 0.00 | 0.01 | 0.01 | 92 | 1008.7 |
| 20260506202520 | 56 | 238 | 1.7 | 2.6 | 0.00 | 0.01 | 0.01 | 92 | 1008.7 |
| 20260506202016 | 56 | 220 | 2.6 | 3.5 | 0.00 | 0.01 | 0.01 | 92 | 1008.7 |
| 20260506201514 | 56 | 281 | 1.7 | 2.6 | 0.00 | 0.01 | 0.01 | 92 | 1008.7 |
| 20260506201010 | 56 | 241 | 3.5 | 4.3 | 0.00 | 0.01 | 0.01 | 92 | 1008.7 |
| 20260506200506 | 56 | 261 | 0.0 | 0.9 | 0.00 | 0.01 | 0.01 | 92 | 1008.7 |
| 20260506200003 | 56 | 215 | 2.6 | 3.5 | 0.00 | 0.01 | 0.01 | 92 | 1008.7 |
| 20260506195500 | 56 | 211 | 0.9 | 2.6 | 0.00 | 0.01 | 0.01 | 92 | 1008.7 |
| 20260506194955 | 56 | 205 | 2.6 | 3.5 | 0.00 | 0.01 | 0.01 | 92 | 1008.7 |
| 20260506194453 | 56 | 238 | 1.7 | 2.6 | 0.00 | 0.01 | 0.01 | 92 | 1008.7 |
| 20260506193944 | 56 | 220 | 2.6 | 2.6 | 0.01 | 0.01 | 0.01 | 92 | 1008.7 |
| 20260506193442 | 56 | 269 | 0.9 | 0.9 | 0.01 | 0.01 | 0.01 | 92 | 1009.0 |
| 20260506192938 | 57 | 258 | 0.0 | 0.9 | 0.01 | 0.01 | 0.01 | 92 | 1009.3 |
| 20260506192435 | 56 | 195 | 3.5 | 4.3 | 0.01 | 0.01 | 0.01 | 92 | 1009.3 |
| 20260506191932 | 56 | 249 | 0.0 | 0.0 | 0.01 | 0.01 | 0.01 | 92 | 1009.0 |
| 20260506191429 | 56 | 219 | 4.3 | 6.1 | 0.01 | 0.01 | 0.01 | 92 | 1009.7 |
| 20260506190925 | 56 | 259 | 0.9 | 2.6 | 0.01 | 0.01 | 0.01 | 92 | 1009.7 |
| 20260506190422 | 57 | 258 | 1.7 | 2.6 | 0.01 | 0.01 | 0.01 | 92 | 1009.3 |
| 20260506185919 | 57 | 212 | 1.7 | 2.6 | 0.01 | 0.01 | 0.01 | 92 | 1009.0 |
| 20260506185416 | 57 | 259 | 0.9 | 2.6 | 0.01 | 0.01 | 0.01 | 92 | 1009.3 |
| 20260506184913 | 58 | 290 | 1.7 | 3.5 | 0.01 | 0.01 | 0.01 | 92 | 1009.3 |
| 20260506184410 | 58 | 227 | 4.3 | 6.1 | 0.00 | 0.00 | 0.00 | 92 | 1009.3 |
| 20260506183907 | 58 | 295 | 6.1 | 11.3 | 0.00 | 0.00 | 0.00 | 91 | 1009.7 |
| 20260506183402 | 58 | 322 | 6.1 | 7.8 | 0.00 | 0.00 | 0.00 | 89 | 1009.7 |
| 20260506182900 | 59 | 259 | 2.6 | 4.3 | 0.00 | 0.00 | 0.00 | 89 | 1009.7 |
| 20260506182357 | 59 | 200 | 2.6 | 2.6 | 0.00 | 0.00 | 0.00 | 88 | 1010.0 |
| 20260506181854 | 59 | 244 | 1.7 | 3.5 | 0.00 | 0.00 | 0.00 | 87 | 1010.0 |
| 20260506181352 | 59 | 329 | 3.5 | 4.3 | 0.00 | 0.00 | 0.00 | 86 | 1010.0 |
| 20260506180849 | 60 | 277 | 2.6 | 4.3 | 0.00 | 0.00 | 0.00 | 85 | 1010.0 |
| 20260506180345 | 60 | 252 | 3.5 | 4.3 | 0.00 | 0.00 | 0.00 | 84 | 1010.0 |
| 20260506175842 | 60 | 332 | 1.7 | 3.5 | 0.00 | 0.00 | 0.00 | 83 | 1010.4 |
| 20260506175338 | 60 | 262 | 0.0 | 0.9 | 0.00 | 0.00 | 0.00 | 83 | 1010.4 |
| 20260506174835 | 60 | 315 | 2.6 | 4.3 | 0.00 | 0.00 | 0.00 | 83 | 1010.4 |
| 20260506174333 | 60 | 275 | 1.7 | 2.6 | 0.00 | 0.00 | 0.00 | 82 | 1010.4 |
| 20260506173830 | 61 | 327 | 2.6 | 2.6 | 0.00 | 0.00 | 0.00 | 81 | 1010.7 |
| 20260506173327 | 62 | 286 | 0.9 | 0.9 | 0.00 | 0.00 | 0.00 | 80 | 1010.4 |
| 20260506172824 | 62 | 259 | 2.6 | 3.5 | 0.00 | 0.00 | 0.00 | 81 | 1010.7 |
| 20260506172321 | 61 | 213 | 2.6 | 3.5 | 0.00 | 0.00 | 0.00 | 81 | 1010.7 |
| 20260506171818 | 61 | 220 | 2.6 | 3.5 | 0.00 | 0.00 | 0.00 | 81 | 1010.7 |
| 20260506171315 | 61 | 280 | 0.9 | 0.9 | 0.00 | 0.00 | 0.00 | 81 | 1010.4 |
| 20260506170813 | 61 | 283 | 1.7 | 2.6 | 0.00 | 0.00 | 0.00 | 81 | 1011.0 |
| 20260506170308 | 61 | 207 | 4.3 | 6.1 | 0.00 | 0.00 | 0.00 | 82 | 1011.0 |
| 20260506165808 | 60 | 270 | 1.7 | 2.6 | 0.00 | 0.00 | 0.00 | 82 | 1011.0 |
| 20260506165306 | 60 | 229 | 2.6 | 3.5 | 0.00 | 0.00 | 0.00 | 82 | 1010.7 |
| 20260506164801 | 61 | 220 | 5.2 | 6.1 | 0.00 | 0.00 | 0.00 | 81 | 1011.0 |
| 20260506164258 | 62 | 224 | 2.6 | 3.5 | 0.00 | 0.00 | 0.00 | 80 | 1010.7 |
| 20260506163755 | 62 | 342 | 0.9 | 0.9 | 0.00 | 0.00 | 0.00 | 79 | 1010.7 |
| 20260506163250 | 62 | 229 | 2.6 | 3.5 | 0.00 | 0.00 | 0.00 | 79 | 1011.0 |
| 20260506162746 | 62 | 211 | 8.7 | 10.4 | 0.00 | 0.00 | 0.00 | 79 | 1011.0 |
| 20260506162244 | 63 | 259 | 4.3 | 6.1 | 0.00 | 0.00 | 0.00 | 78 | 1011.0 |
| 20260506161741 | 63 | 264 | 1.7 | 2.6 | 0.00 | 0.00 | 0.00 | 78 | 1011.4 |
| 20260506161238 | 62 | 256 | 4.3 | 6.1 | 0.00 | 0.00 | 0.00 | 79 | 1011.4 |
| 20260506160736 | 63 | 284 | 1.7 | 2.6 | 0.00 | 0.00 | 0.00 | 79 | 1011.4 |
| 20260506160232 | 62 | 247 | 2.6 | 3.5 | 0.00 | 0.00 | 0.00 | 80 | 1011.4 |
| 20260506155731 | 62 | 269 | 6.1 | 10.4 | 0.00 | 0.00 | 0.00 | 80 | 1011.7 |
| 20260506155227 | 62 | 178 | 4.3 | 6.1 | 0.00 | 0.00 | 0.00 | 80 | 1011.4 |
| 20260506153335 | 63 | 281 | 8.7 | 11.3 | 0.00 | 0.00 | 0.00 | 79 | 1012.1 |
| 20260506152832 | 63 | 220 | 6.1 | 9.6 | 0.00 | 0.00 | 0.00 | 79 | 1012.1 |
| 20260506152329 | 63 | 285 | 6.1 | 7.8 | 0.00 | 0.00 | 0.00 | 78 | 1011.7 |
| 20260506151828 | 63 | 301 | 3.5 | 4.3 | 0.00 | 0.00 | 0.00 | 78 | 1011.4 |
| 20260506151324 | 63 | 306 | 4.3 | 6.1 | 0.00 | 0.00 | 0.00 | 78 | 1011.7 |
| 20260506150821 | 64 | 264 | 3.5 | 3.5 | 0.00 | 0.00 | 0.00 | 77 | 1012.1 |
| 20260506150318 | 64 | 191 | 3.5 | 9.6 | 0.00 | 0.00 | 0.00 | 76 | 1011.4 |
| 20260506145815 | 64 | 276 | 2.6 | 3.5 | 0.00 | 0.00 | 0.00 | 78 | 1011.7 |
| 20260506145311 | 64 | 280 | 3.5 | 4.3 | 0.00 | 0.00 | 0.00 | 77 | 1012.1 |
| 20260506144809 | 63 | 228 | 11.3 | 13.9 | 0.00 | 0.00 | 0.00 | 78 | 1011.7 |
| 20260506144305 | 63 | 230 | 8.7 | 11.3 | 0.00 | 0.00 | 0.00 | 78 | 1011.7 |
| 20260506143803 | 64 | 189 | 8.7 | 11.3 | 0.00 | 0.00 | 0.00 | 77 | 1012.1 |
| 20260506143300 | 63 | 333 | 3.5 | 4.3 | 0.00 | 0.00 | 0.00 | 78 | 1012.4 |
| 20260506142758 | 62 | 316 | 5.2 | 6.1 | 0.00 | 0.00 | 0.00 | 80 | 1012.1 |
| 20260506142256 | 62 | 270 | 6.1 | 7.8 | 0.00 | 0.00 | 0.00 | 80 | 1012.1 |
| 20260506141754 | 62 | 288 | 5.2 | 7.8 | 0.00 | 0.00 | 0.00 | 80 | 1012.1 |
| 20260506141252 | 62 | 260 | 7.0 | 7.8 | 0.00 | 0.00 | 0.00 | 80 | 1012.1 |
| 20260506140749 | 61 | 276 | 4.3 | 7.8 | 0.00 | 0.00 | 0.00 | 80 | 1011.7 |
| 20260506140246 | 61 | 272 | 8.7 | 13.9 | 0.00 | 0.00 | 0.00 | 81 | 1011.7 |
| 20260506135743 | 61 | 236 | 1.7 | 3.5 | 0.00 | 0.00 | 0.00 | 81 | 1011.7 |
| 20260506135239 | 62 | 298 | 7.0 | 7.8 | 0.00 | 0.00 | 0.00 | 80 | 1012.1 |
| 20260506134736 | 61 | 247 | 3.5 | 6.1 | 0.00 | 0.00 | 0.00 | 82 | 1011.4 |
| 20260506134233 | 61 | 269 | 6.1 | 10.4 | 0.00 | 0.00 | 0.00 | 81 | 1011.7 |
| 20260506133730 | 62 | 288 | 4.3 | 6.1 | 0.00 | 0.00 | 0.00 | 80 | 1011.7 |
| 20260506133226 | 63 | 218 | 4.3 | 6.1 | 0.00 | 0.00 | 0.00 | 79 | 1011.4 |
| 20260506132724 | 63 | 281 | 3.5 | 6.1 | 0.00 | 0.00 | 0.00 | 78 | 1011.7 |
| 20260506132221 | 63 | 156 | 3.5 | 4.3 | 0.00 | 0.00 | 0.00 | 79 | 1011.7 |
| 20260506131719 | 62 | 277 | 2.6 | 3.5 | 0.00 | 0.00 | 0.00 | 81 | 1011.7 |
| 20260506131214 | 61 | 271 | 3.5 | 4.3 | 0.00 | 0.00 | 0.00 | 82 | 1012.1 |
| 20260506130711 | 62 | 278 | 10.4 | 16.5 | 0.00 | 0.00 | 0.00 | 80 | 1012.1 |
| 20260506130208 | 61 | 300 | 4.3 | 6.1 | 0.00 | 0.00 | 0.00 | 81 | 1012.1 |
| 20260506125706 | 62 | 252 | 6.1 | 10.4 | 0.00 | 0.00 | 0.00 | 81 | 1011.7 |
| 20260506125204 | 61 | 235 | 1.7 | 2.6 | 0.00 | 0.00 | 0.00 | 82 | 1012.1 |
| 20260506124702 | 61 | 230 | 3.5 | 4.3 | 0.00 | 0.00 | 0.00 | 82 | 1012.1 |
| 20260506124200 | 61 | 272 | 3.5 | 4.3 | 0.00 | 0.00 | 0.00 | 82 | 1012.4 |
| 20260506123657 | 61 | 281 | 1.7 | 3.5 | 0.00 | 0.00 | 0.00 | 82 | 1012.1 |
| 20260506123155 | 60 | 252 | 2.6 | 3.5 | 0.00 | 0.00 | 0.00 | 83 | 1012.4 |
| 20260506122652 | 60 | 276 | 1.7 | 2.6 | 0.00 | 0.00 | 0.00 | 83 | 1012.1 |
| 20260506122149 | 60 | 247 | 4.3 | 6.1 | 0.00 | 0.00 | 0.00 | 83 | 1012.1 |
| 20260506121647 | 60 | 309 | 2.6 | 3.5 | 0.00 | 0.00 | 0.00 | 84 | 1012.4 |
| 20260506121143 | 60 | 255 | 2.6 | 3.5 | 0.00 | 0.00 | 0.00 | 84 | 1012.4 |
| 20260506120641 | 60 | 258 | 3.5 | 3.5 | 0.00 | 0.00 | 0.00 | 84 | 1012.4 |
| 20260506120138 | 60 | 256 | 3.5 | 6.1 | 0.00 | 0.00 | 0.00 | 84 | 1012.1 |
| 20260506115637 | 59 | 284 | 2.6 | 3.5 | 0.00 | 0.00 | 0.00 | 85 | 1012.1 |
| 20260506115134 | 59 | 285 | 3.5 | 4.3 | 0.00 | 0.00 | 0.00 | 85 | 1012.4 |
| 20260506114631 | 59 | 270 | 3.5 | 6.1 | 0.00 | 0.00 | 0.00 | 85 | 1012.1 |
| 20260506114129 | 59 | 154 | 3.5 | 3.5 | 0.00 | 0.00 | 0.00 | 86 | 1012.1 |
| 20260506113628 | 59 | 275 | 4.3 | 7.8 | 0.00 | 0.00 | 0.00 | 86 | 1012.1 |
| 20260506113124 | 59 | 236 | 3.5 | 4.3 | 0.00 | 0.00 | 0.00 | 86 | 1012.4 |
| 20260506112620 | 59 | 274 | 5.2 | 7.8 | 0.00 | 0.00 | 0.00 | 86 | 1012.4 |
| 20260506112118 | 58 | 192 | 1.7 | 3.5 | 0.00 | 0.00 | 0.00 | 87 | 1012.1 |
| 20260506111616 | 58 | 278 | 1.7 | 3.5 | 0.00 | 0.00 | 0.00 | 87 | 1012.4 |
| 20260506111113 | 58 | 214 | 3.5 | 4.3 | 0.00 | 0.00 | 0.00 | 88 | 1012.4 |
| 20260506110610 | 58 | 214 | 6.1 | 7.8 | 0.00 | 0.00 | 0.00 | 88 | 1012.4 |
| 20260506110108 | 58 | 214 | 2.6 | 4.3 | 0.00 | 0.00 | 0.00 | 88 | 1012.4 |
| 20260506105604 | 57 | 275 | 2.6 | 2.6 | 0.00 | 0.00 | 0.00 | 89 | 1012.4 |
| 20260506105101 | 57 | 289 | 2.6 | 4.3 | 0.00 | 0.00 | 0.00 | 90 | 1012.1 |
| 20260506104559 | 57 | 230 | 0.9 | 0.9 | 0.00 | 0.00 | 0.00 | 90 | 1012.1 |
| 20260506104057 | 57 | 305 | 2.6 | 2.6 | 0.00 | 0.00 | 0.00 | 90 | 1012.1 |
| 20260506103554 | 57 | 290 | 0.9 | 2.6 | 0.00 | 0.00 | 0.00 | 90 | 1012.4 |
| 20260506103050 | 57 | 274 | 3.5 | 7.0 | 0.00 | 0.00 | 0.00 | 90 | 1012.1 |
| 20260506102549 | 57 | 183 | 1.7 | 2.6 | 0.00 | 0.00 | 0.00 | 90 | 1012.1 |
| 20260506102046 | 57 | 258 | 3.5 | 4.3 | 0.00 | 0.00 | 0.00 | 90 | 1012.1 |
| 20260506101542 | 57 | 264 | 1.7 | 2.6 | 0.00 | 0.00 | 0.00 | 90 | 1012.1 |
| 20260506101039 | 57 | 282 | 3.5 | 4.3 | 0.00 | 0.00 | 0.00 | 90 | 1012.1 |
| 20260506100538 | 57 | 244 | 1.7 | 3.5 | 0.00 | 0.00 | 0.00 | 90 | 1012.1 |
| 20260506100036 | 57 | 211 | 3.5 | 4.3 | 0.00 | 0.00 | 0.00 | 90 | 1012.1 |
| 20260506095534 | 57 | 293 | 4.3 | 7.8 | 0.00 | 0.00 | 0.00 | 90 | 1012.1 |
| 20260506095030 | 57 | 290 | 2.6 | 3.5 | 0.00 | 0.00 | 0.00 | 90 | 1012.1 |
| 20260506094528 | 57 | 221 | 2.6 | 3.5 | 0.00 | 0.00 | 0.00 | 90 | 1012.1 |
| 20260506094026 | 57 | 242 | 2.6 | 3.5 | 0.00 | 0.00 | 0.00 | 90 | 1012.1 |
| 20260506093524 | 57 | 271 | 2.6 | 3.5 | 0.00 | 0.00 | 0.00 | 90 | 1012.1 |
| 20260506093021 | 57 | 162 | 2.6 | 3.5 | 0.00 | 0.00 | 0.00 | 90 | 1012.1 |
| 20260506092519 | 57 | 198 | 2.6 | 3.5 | 0.00 | 0.00 | 0.00 | 90 | 1012.1 |
| 20260506092015 | 57 | 238 | 6.1 | 7.0 | 0.00 | 0.00 | 0.00 | 90 | 1012.1 |
| 20260506091514 | 57 | 259 | 1.7 | 2.6 | 0.00 | 0.00 | 0.00 | 90 | 1011.7 |
| 20260506091010 | 57 | 239 | 1.7 | 2.6 | 0.00 | 0.00 | 0.00 | 90 | 1012.1 |
| 20260506090508 | 57 | 203 | 2.6 | 3.5 | 0.00 | 0.00 | 0.00 | 90 | 1012.4 |
| 20260506090004 | 57 | 267 | 0.9 | 0.9 | 0.00 | 0.00 | 0.00 | 89 | 1012.4 |
| 20260506085502 | 57 | 274 | 3.5 | 3.5 | 0.00 | 0.00 | 0.00 | 89 | 1012.4 |
| 20260506084958 | 57 | 274 | 2.6 | 2.6 | 0.00 | 0.00 | 0.00 | 89 | 1012.4 |
| 20260506084455 | 57 | 263 | 4.3 | 6.1 | 0.00 | 0.00 | 0.00 | 89 | 1012.4 |
| 20260506083950 | 57 | 270 | 1.7 | 2.6 | 0.00 | 0.00 | 0.00 | 88 | 1012.1 |
| 20260506083448 | 57 | 268 | 0.9 | 0.9 | 0.00 | 0.00 | 0.00 | 88 | 1012.4 |
| 20260506082945 | 57 | 289 | 0.9 | 0.9 | 0.00 | 0.00 | 0.00 | 88 | 1012.1 |
| 20260506082442 | 57 | 282 | 3.5 | 4.3 | 0.00 | 0.00 | 0.00 | 88 | 1012.4 |
| 20260506081938 | 58 | 172 | 2.6 | 4.3 | 0.00 | 0.00 | 0.00 | 88 | 1012.4 |
| 20260506081437 | 57 | 262 | 3.5 | 4.3 | 0.00 | 0.00 | 0.00 | 88 | 1012.4 |
| 20260506080933 | 57 | 290 | 3.5 | 6.1 | 0.00 | 0.00 | 0.00 | 88 | 1012.4 |
| 20260506080430 | 57 | 240 | 1.7 | 3.5 | 0.00 | 0.00 | 0.00 | 88 | 1012.7 |
| 20260506073414 | 57 | 267 | 3.5 | 4.3 | 0.00 | 0.00 | 0.00 | 88 | 1012.7 |
| 20260506072912 | 57 | 205 | 1.7 | 2.6 | 0.00 | 0.00 | 0.00 | 88 | 1012.4 |
| 20260506072409 | 57 | 253 | 2.6 | 3.5 | 0.00 | 0.00 | 0.00 | 88 | 1012.4 |
| 20260506071906 | 57 | 280 | 1.7 | 2.6 | 0.00 | 0.00 | 0.00 | 88 | 1012.4 |
| 20260506071404 | 57 | 265 | 2.6 | 3.5 | 0.00 | 0.00 | 0.00 | 88 | 1012.1 |
| 20260506070901 | 57 | 254 | 1.7 | 2.6 | 0.00 | 0.00 | 0.00 | 88 | 1012.4 |
| 20260506070357 | 57 | 238 | 3.5 | 4.3 | 0.00 | 0.00 | 0.00 | 87 | 1012.4 |
| 20260506062335 | 58 | 291 | 3.5 | 4.3 | 0.00 | 0.00 | 0.00 | 87 | 1012.4 |
| 20260506061830 | 58 | 216 | 2.6 | 3.5 | 0.00 | 0.00 | 0.00 | 87 | 1012.7 |
| 20260506061328 | 58 | 255 | 0.9 | 2.6 | 0.00 | 0.00 | 0.00 | 87 | 1012.4 |
| 20260506060826 | 58 | 295 | 2.6 | 3.5 | 0.00 | 0.00 | 0.00 | 87 | 1012.7 |
| 20260506060323 | 57 | 239 | 2.6 | 3.5 | 0.00 | 0.00 | 0.00 | 87 | 1012.7 |
| 20260506051255 | 58 | 263 | 1.7 | 3.5 | 0.00 | 0.00 | 0.00 | 86 | 1013.1 |
| 20260506050753 | 58 | 222 | 1.7 | 3.5 | 0.00 | 0.00 | 0.00 | 85 | 1013.1 |
| 20260506050250 | 58 | 194 | 4.3 | 7.0 | 0.00 | 0.00 | 0.00 | 85 | 1013.1 |
| 20260506044741 | 58 | 263 | 2.6 | 3.5 | 0.00 | 0.00 | 0.00 | 84 | 1013.1 |
| 20260506044238 | 59 | 288 | 3.5 | 4.3 | 0.00 | 0.00 | 0.00 | 84 | 1013.1 |
| 20260506043735 | 58 | 169 | 1.7 | 3.5 | 0.00 | 0.00 | 0.00 | 83 | 1013.1 |
| 20260506043233 | 59 | 249 | 1.7 | 2.6 | 0.00 | 0.00 | 0.00 | 83 | 1013.1 |
| 20260506042731 | 59 | 289 | 0.0 | 0.0 | 0.00 | 0.00 | 0.00 | 82 | 1013.1 |
| 20260506042230 | 59 | 194 | 2.6 | 3.5 | 0.00 | 0.00 | 0.00 | 82 | 1013.1 |
| 20260506041728 | 59 | 273 | 3.5 | 4.3 | 0.00 | 0.00 | 0.00 | 82 | 1013.1 |
| 20260506041224 | 59 | 268 | 2.6 | 6.1 | 0.00 | 0.00 | 0.00 | 82 | 1012.7 |
| 20260506040722 | 59 | 282 | 1.7 | 2.6 | 0.00 | 0.00 | 0.00 | 81 | 1012.7 |
| 20260506040219 | 59 | 207 | 5.2 | 7.0 | 0.00 | 0.00 | 0.00 | 81 | 1013.1 |
| 20260506035715 | 59 | 298 | 2.6 | 4.3 | 0.00 | 0.00 | 0.00 | 81 | 1013.1 |
| 20260506035212 | 59 | 294 | 1.7 | 2.6 | 0.00 | 0.00 | 0.00 | 81 | 1013.1 |
| 20260506034709 | 59 | 271 | 1.7 | 2.6 | 0.00 | 0.00 | 0.00 | 80 | 1013.1 |
| 20260506034207 | 59 | 201 | 6.1 | 10.4 | 0.00 | 0.00 | 0.00 | 81 | 1013.1 |
| 20260506033704 | 59 | 283 | 2.6 | 3.5 | 0.00 | 0.00 | 0.00 | 80 | 1013.1 |
| 20260506033200 | 59 | 280 | 1.7 | 2.6 | 0.00 | 0.00 | 0.00 | 81 | 1013.1 |
| 20260506032657 | 59 | 262 | 1.7 | 2.6 | 0.00 | 0.00 | 0.00 | 81 | 1013.1 |
| 20260506032154 | 59 | 216 | 3.5 | 3.5 | 0.00 | 0.00 | 0.00 | 81 | 1012.7 |
| 20260506031651 | 59 | 249 | 1.7 | 2.6 | 0.00 | 0.00 | 0.00 | 81 | 1012.7 |
| 20260506031148 | 59 | 257 | 0.9 | 0.9 | 0.00 | 0.00 | 0.00 | 80 | 1013.1 |
| 20260506030647 | 59 | 299 | 3.5 | 6.1 | 0.00 | 0.00 | 0.00 | 80 | 1012.7 |
| 20260506030143 | 59 | 267 | 0.9 | 0.9 | 0.00 | 0.00 | 0.00 | 80 | 1012.7 |
| 20260506025640 | 59 | 269 | 1.7 | 2.6 | 0.00 | 0.00 | 0.00 | 80 | 1012.7 |
| 20260506025136 | 59 | 260 | 0.9 | 0.9 | 0.00 | 0.00 | 0.00 | 79 | 1012.7 |
| 20260506024634 | 59 | 297 | 3.5 | 4.3 | 0.00 | 0.00 | 0.00 | 79 | 1012.7 |
| 20260506024130 | 59 | 244 | 0.9 | 0.9 | 0.00 | 0.00 | 0.00 | 79 | 1012.7 |
| 20260506023626 | 59 | 260 | 1.7 | 3.5 | 0.00 | 0.00 | 0.00 | 78 | 1012.4 |
| 20260506023124 | 59 | 294 | 2.6 | 4.3 | 0.00 | 0.00 | 0.00 | 79 | 1012.7 |
| 20260506022621 | 59 | 271 | 0.0 | 0.0 | 0.00 | 0.00 | 0.00 | 78 | 1012.4 |
| 20260506022118 | 59 | 277 | 2.6 | 3.5 | 0.00 | 0.00 | 0.00 | 78 | 1012.7 |
| 20260506021616 | 59 | 275 | 2.6 | 3.5 | 0.00 | 0.00 | 0.00 | 78 | 1012.7 |
| 20260506021113 | 59 | 271 | 4.3 | 6.1 | 0.00 | 0.00 | 0.00 | 78 | 1012.7 |
| 20260506020610 | 59 | 200 | 2.6 | 4.3 | 0.00 | 0.00 | 0.00 | 78 | 1012.7 |
| 20260506020108 | 59 | 260 | 0.0 | 0.9 | 0.00 | 0.00 | 0.00 | 78 | 1012.7 |
| 20260506015605 | 59 | 257 | 0.0 | 0.9 | 0.00 | 0.00 | 0.00 | 78 | 1012.7 |
| 20260506015102 | 59 | 287 | 3.5 | 6.1 | 0.00 | 0.00 | 0.00 | 78 | 1012.4 |
| 20260506014600 | 59 | 305 | 0.9 | 0.9 | 0.00 | 0.00 | 0.00 | 77 | 1012.4 |
| 20260506014055 | 59 | 320 | 1.7 | 3.5 | 0.00 | 0.00 | 0.00 | 77 | 1012.4 |
| 20260506013553 | 59 | 265 | 1.7 | 4.3 | 0.00 | 0.00 | 0.00 | 78 | 1012.4 |
| 20260506013050 | 59 | 270 | 2.6 | 4.3 | 0.00 | 0.00 | 0.00 | 78 | 1012.7 |
| 20260506012546 | 59 | 279 | 2.6 | 3.5 | 0.00 | 0.00 | 0.00 | 77 | 1012.4 |
| 20260506012043 | 59 | 268 | 1.7 | 2.6 | 0.00 | 0.00 | 0.00 | 77 | 1012.4 |
| 20260506011541 | 59 | 281 | 3.5 | 4.3 | 0.00 | 0.00 | 0.00 | 78 | 1012.1 |
| 20260506011036 | 59 | 282 | 2.6 | 3.5 | 0.00 | 0.00 | 0.00 | 78 | 1012.1 |
| 20260506010531 | 59 | 302 | 2.6 | 3.5 | 0.00 | 0.00 | 0.00 | 78 | 1012.1 |
| 20260506010027 | 59 | 259 | 1.7 | 2.6 | 0.00 | 0.00 | 0.00 | 78 | 1012.1 |
| 20260506005524 | 59 | 281 | 2.6 | 2.6 | 0.00 | 0.00 | 0.00 | 78 | 1012.1 |
| 20260506005020 | 59 | 288 | 0.0 | 0.9 | 0.00 | 0.00 | 0.00 | 78 | 1011.7 |
| 20260506004517 | 59 | 261 | 5.2 | 7.0 | 0.00 | 0.00 | 0.00 | 78 | 1011.7 |
| 20260506004014 | 59 | 302 | 0.0 | 0.0 | 0.00 | 0.00 | 0.00 | 78 | 1011.7 |
| 20260506003510 | 59 | 270 | 2.6 | 2.6 | 0.00 | 0.00 | 0.00 | 78 | 1011.7 |
| 20260506003006 | 59 | 258 | 1.7 | 2.6 | 0.00 | 0.00 | 0.00 | 77 | 1011.7 |
| 20260506002502 | 59 | 271 | 3.5 | 6.1 | 0.00 | 0.00 | 0.00 | 77 | 1011.4 |
| 20260506001958 | 59 | 269 | 2.6 | 3.5 | 0.00 | 0.00 | 0.00 | 78 | 1011.4 |
| 20260506001455 | 59 | 268 | 3.5 | 4.3 | 0.00 | 0.00 | 0.00 | 78 | 1011.4 |
| 20260506000952 | 59 | 310 | 3.5 | 6.1 | 0.00 | 0.00 | 0.00 | 78 | 1011.4 |
| 20260506000449 | 59 | 264 | 4.3 | 4.3 | 0.00 | 0.00 | 0.00 | 78 | 1011.4 |
| 20260505235946 | 59 | 283 | 7.8 | 9.6 | 0.00 | 0.00 | 0.00 | 77 | 1011.0 |
| 20260505235445 | 59 | 261 | 2.6 | 2.6 | 0.00 | 0.00 | 0.00 | 77 | 1011.0 |
| 20260505234941 | 59 | 246 | 1.7 | 2.6 | 0.00 | 0.00 | 0.00 | 78 | 1010.7 |
| 20260505234439 | 59 | 231 | 1.7 | 2.6 | 0.00 | 0.00 | 0.00 | 77 | 1010.7 |
| 20260505233935 | 59 | 252 | 0.0 | 0.0 | 0.00 | 0.00 | 0.00 | 77 | 1010.7 |
| 20260505233433 | 59 | 272 | 0.9 | 0.9 | 0.00 | 0.00 | 0.00 | 78 | 1010.4 |
| 20260505232930 | 59 | 281 | 0.0 | 0.0 | 0.00 | 0.00 | 0.00 | 78 | 1010.4 |
| 20260505232428 | 59 | 277 | 1.7 | 2.6 | 0.00 | 0.00 | 0.00 | 77 | 1011.0 |
| 20260505231924 | 59 | 233 | 1.7 | 2.6 | 0.00 | 0.00 | 0.00 | 77 | 1011.4 |
| 20260505231422 | 59 | 280 | 4.3 | 4.3 | 0.00 | 0.00 | 0.00 | 77 | 1011.4 |
| 20260505230920 | 60 | 275 | 0.0 | 0.0 | 0.00 | 0.00 | 0.00 | 76 | 1011.0 |
| 20260505230418 | 60 | 266 | 0.0 | 0.0 | 0.00 | 0.00 | 0.00 | 76 | 1011.0 |
| 20260505225914 | 60 | 253 | 0.9 | 0.9 | 0.00 | 0.00 | 0.00 | 76 | 1011.0 |
| 20260505225411 | 60 | 271 | 2.6 | 2.6 | 0.00 | 0.00 | 0.00 | 75 | 1011.0 |
| 20260505224906 | 60 | 261 | 0.9 | 2.6 | 0.00 | 0.00 | 0.00 | 75 | 1010.7 |
| 20260505224404 | 61 | 270 | 2.6 | 3.5 | 0.00 | 0.00 | 0.00 | 74 | 1011.0 |
| 20260505223901 | 61 | 306 | 4.3 | 6.1 | 0.00 | 0.00 | 0.00 | 73 | 1011.0 |
| 20260505223357 | 61 | 255 | 2.6 | 3.5 | 0.00 | 0.00 | 0.00 | 73 | 1010.7 |
| 20260505222853 | 62 | 278 | 1.7 | 2.6 | 0.00 | 0.00 | 0.00 | 73 | 1010.7 |
| 20260505222350 | 61 | 313 | 1.7 | 3.5 | 0.00 | 0.00 | 0.00 | 73 | 1010.7 |
| 20260505221847 | 61 | 294 | 1.7 | 2.6 | 0.00 | 0.00 | 0.00 | 73 | 1010.7 |
| 20260505221344 | 61 | 268 | 6.1 | 6.1 | 0.00 | 0.00 | 0.00 | 73 | 1010.4 |
| 20260505220841 | 61 | 193 | 4.3 | 6.1 | 0.00 | 0.00 | 0.00 | 73 | 1010.4 |
| 20260505220338 | 61 | 284 | 1.7 | 3.5 | 0.00 | 0.00 | 0.00 | 72 | 1010.4 |
| 20260505215835 | 62 | 268 | 2.6 | 3.5 | 0.00 | 0.00 | 0.00 | 72 | 1010.4 |
| 20260505215333 | 62 | 351 | 6.1 | 13.9 | 0.00 | 0.00 | 0.00 | 71 | 1010.4 |
| 20260505214831 | 62 | 326 | 7.0 | 9.6 | 0.00 | 0.00 | 0.00 | 71 | 1010.4 |
| 20260505214328 | 62 | 216 | 3.5 | 3.5 | 0.00 | 0.00 | 0.00 | 73 | 1010.7 |
| 20260505213825 | 62 | 193 | 5.2 | 7.0 | 0.00 | 0.00 | 0.00 | 72 | 1010.7 |
| 20260505213323 | 63 | 205 | 5.2 | 6.1 | 0.00 | 0.00 | 0.00 | 71 | 1010.7 |
| 20260505212819 | 63 | 228 | 0.0 | 0.9 | 0.00 | 0.00 | 0.00 | 70 | 1010.7 |
| 20260505212316 | 63 | 226 | 3.5 | 4.3 | 0.00 | 0.00 | 0.00 | 70 | 1010.4 |
| 20260505211812 | 63 | 176 | 4.3 | 6.1 | 0.00 | 0.00 | 0.00 | 71 | 1010.4 |
| 20260505211310 | 64 | 233 | 4.3 | 4.3 | 0.00 | 0.00 | 0.00 | 70 | 1010.4 |
| 20260505210806 | 64 | 122 | 4.3 | 7.8 | 0.00 | 0.00 | 0.00 | 69 | 1010.4 |
| 20260505210303 | 64 | 267 | 0.9 | 0.9 | 0.00 | 0.00 | 0.00 | 69 | 1010.4 |
| 20260505205800 | 64 | 275 | 1.7 | 2.6 | 0.00 | 0.00 | 0.00 | 69 | 1010.4 |
| 20260505205259 | 64 | 192 | 2.6 | 4.3 | 0.00 | 0.00 | 0.00 | 69 | 1010.0 |
| 20260505204755 | 64 | 202 | 7.0 | 7.8 | 0.00 | 0.00 | 0.00 | 69 | 1010.4 |
| 20260505204253 | 65 | 210 | 4.3 | 6.1 | 0.00 | 0.00 | 0.00 | 69 | 1010.4 |